This demonstration page uses our WeatherBlox Daily Observations layout. Learn more.

39.92423, -83.80882

Hourly Observations for June 29, 2017

Temp ( °F °C ) Dew Point ( °F °C ) Humidity (%) Winds ( mph kmh ) Pressure ( in mb ) Visibility ( mi km ) Precip ( " mm )
12:56 am 00:56 Clear 64 17.8 55 12.8 73 73 S 8 13 30.03 1017 10 16.0934 0 0
1:56 am 01:56 Clear 65 18.3 55 12.8 70 70 S 8 13 30.01 1016 10 16.0934 0 0
2:56 am 02:56 Clear 66 18.9 55 12.8 68 68 SSW 6 9 30.01 1016 10 16.0934 0 0
3:56 am 03:56 Clear 64 17.8 55 12.8 73 73 S 6 9 29.99 1016 10 16.0934 0 0
4:56 am 04:56 Clear 64 17.8 55 12.8 73 73 SSW 5 7 29.99 1016 10 16.0934 0 0
5:56 am 05:56 Clear 67 19.4 55 12.8 66 66 SSW 9 15 30 1016 10 16.0934 0 0
6:56 am 06:56 Mostly Cloudy 68 20 55 12.8 63 63 SSW 8 13 30 1016 10 16.0934 0 0
7:56 am 07:56 Sunny 69 20.6 56 13.3 63 63 SSW 13 20 29.99 1016 10 16.0934 0 0
8:56 am 08:56 Sunny 72 22.2 59 15 64 64 SSW 16 26 29.98 1015 10 16.0934 0 0
9:56 am 09:56 Sunny 75 23.9 62 16.7 64 64 SSW 14 22 29.97 1015 10 16.0934 0 0
10:56 am 10:56 Sunny 77 25 64 17.8 64 64 SSW 14 22 29.96 1015 10 16.0934 0 0
11:56 am 11:56 Partly Cloudy 81 27.2 67 19.4 62 62 SSW 20 31 29.96 1015 10 16.0934 0 0
12:56 pm 12:56 Mostly Cloudy 82 27.8 68 20 63 63 SW 13 20 29.98 1015 10 16.0934 0 0
1:56 pm 13:56 Partly Cloudy 84 28.9 66 18.9 55 55 SW 20 31 29.96 1015 10 16.0934 0 0
2:56 pm 14:56 Partly Cloudy 85 29.4 66 18.9 53 53 WSW 18 30 29.95 1014 10 16.0934 0 0
3:56 pm 15:56 Sunny 86 30 66 18.9 51 51 SW 16 26 29.94 1014 10 16.0934 0 0
4:56 pm 16:56 Sunny 86 30 65 18.3 49 49 SW 16 26 29.93 1014 10 16.0934 0 0
5:56 pm 17:56 Sunny 85 29.4 65 18.3 51 51 SW 17 28 29.92 1013 10 16.0934 0 0
6:56 pm 18:56 Partly Cloudy 85 29.4 66 18.9 53 53 WSW 20 31 29.93 1013 10 16.0934 0 0
7:56 pm 19:56 Mostly Cloudy 83 28.3 67 19.4 59 59 SW 10 17 29.94 1014 10 16.0934 0 0
8:56 pm 20:56 Sunny 79 26.1 67 19.4 67 67 S 5 7 29.93 1014 10 16.0934 0 0
9:56 pm 21:56 Clear 77 25 68 20 74 74 S 8 13 29.92 1013 10 16.0934 0 0
10:56 pm 22:56 Mostly Cloudy 76 24.4 68 20 77 77 SSW 5 7 29.94 1014 10 16.0934 0 0
11:56 pm 23:56 Clear 76 24.4 68 20 77 77 SSW 9 15 29.93 1014 10 16.0934 0 0

Powered by AerisWeather